When you browse on this site, cookies collect data to enhance your experience and personalize the content and advertising you see.
Visit our Privacy Policy to learn more. By continuing to use the site, you agree to this use of cookies and data.
  • In Hungary
  • List of Countries
  • For 7 days
  • Water Temperature
  • Satellite Maps
  • Weather Map
  • News
  • Weather Widgets
  • user-avatar
    Login

    Hourly Weather Skopje

    Today, 18 November, Sunday

    Time Temperature Precipitation Wind Pressure Humidity
    00:00 +3°C° 0.1 mm 1 mps 739 mmHg 73%
    01:00 +4°C° 0 mm 1 mps 739 mmHg 75%
    02:00 +4°C° 0 mm 1 mps 738 mmHg 76%
    03:00 +4°C° 0 mm 1 mps 738 mmHg 76%
    04:00 +4°C° 0 mm 1 mps 738 mmHg 77%
    05:00 +4°C° 0.1 mm 1 mps 737 mmHg 76%
    06:00 +4°C° 0.1 mm 1 mps 737 mmHg 76%
    07:00 +5°C° 0 mm 1 mps 737 mmHg 77%
    08:00 +6°C° 0.2 mm 1 mps 737 mmHg 74%
    09:00 +6°C° 0.2 mm 2 mps 736 mmHg 71%
    10:00 +7°C° 0.2 mm 2 mps 736 mmHg 68%
    11:00 +7°C° 0.6 mm 2 mps 735 mmHg 70%
    12:00 +7°C° 0.6 mm 2 mps 734 mmHg 71%
    13:00 +7°C° 0 mm 2 mps 734 mmHg 75%
    14:00 +7°C° 1.4 mm 2 mps 733 mmHg 78%
    15:00 +6°C° 1.4 mm 2 mps 732 mmHg 81%
    16:00 +6°C° 1.4 mm 2 mps 732 mmHg 84%
    17:00 +5°C° 1 mm 2 mps 732 mmHg 85%
    18:00 +6°C° 1 mm 1 mps 731 mmHg 86%
    19:00 +6°C° 1 mm 1 mps 731 mmHg 87%
    20:00 +6°C° 0.3 mm 1 mps 731 mmHg 87%
    21:00 +6°C° 0.3 mm 1 mps 730 mmHg 87%
    22:00 +5°C° 0.3 mm 1 mps 730 mmHg 88%
    23:00 +5°C° 0.1 mm 1 mps 730 mmHg 87%

    Tomorrow, 19 November, Monday

    Time Temperature Precipitation Wind Pressure Humidity
    00:00 +5°C° 0.1 mm 1 mps 730 mmHg 87%
    01:00 +5°C° 0.1 mm 1 mps 730 mmHg 87%
    02:00 +5°C° 0 mm 1 mps 730 mmHg 87%
    03:00 +4°C° 0 mm 1 mps 730 mmHg 87%
    04:00 +4°C° 0 mm 1 mps 730 mmHg 87%
    05:00 +4°C° 0 mm 1 mps 730 mmHg 87%
    06:00 +4°C° 0 mm 1 mps 730 mmHg 87%
    07:00 +3°C° 0 mm 1 mps 730 mmHg 86%
    08:00 +5°C° 0 mm 1 mps 731 mmHg 83%
    09:00 +6°C° 0 mm 1 mps 731 mmHg 80%
    10:00 +8°C° 0 mm 1 mps 731 mmHg 77%
    11:00 +8°C° 0 mm 1 mps 731 mmHg 76%
    12:00 +9°C° 0 mm 1 mps 731 mmHg 74%
    13:00 +10°C° 0 mm 1 mps 731 mmHg 72%
    14:00 +9°C° 0 mm 1 mps 731 mmHg 74%
    15:00 +9°C° 0 mm 1 mps 732 mmHg 77%
    16:00 +8°C° 0 mm 1 mps 732 mmHg 79%
    17:00 +8°C° 0 mm 1 mps 732 mmHg 80%
    18:00 +7°C° 0 mm 1 mps 732 mmHg 81%
    19:00 +7°C° 0 mm 1 mps 733 mmHg 82%
    20:00 +7°C° 0 mm 1 mps 733 mmHg 81%
    21:00 +8°C° 0 mm 1 mps 733 mmHg 80%
    22:00 +8°C° 0 mm 1 mps 733 mmHg 80%
    23:00 +7°C° 0.6 mm 2 mps 733 mmHg 82%

    Day after tomorrow, 20 November, Tuesday

    Time Temperature Precipitation Wind Pressure Humidity
    00:00 +7°C° 0.6 mm 2 mps 733 mmHg 84%
    01:00 +7°C° 0.6 mm 2 mps 733 mmHg 85%
    02:00 +7°C° 0.7 mm 2 mps 733 mmHg 87%
    03:00 +7°C° 0.7 mm 2 mps 733 mmHg 89%
    04:00 +7°C° 0.7 mm 2 mps 732 mmHg 91%
    05:00 +7°C° 0.5 mm 2 mps 732 mmHg 91%
    06:00 +8°C° 0.5 mm 2 mps 732 mmHg 91%
    07:00 +8°C° 0.5 mm 2 mps 732 mmHg 92%
    08:00 +9°C° 0.5 mm 3 mps 732 mmHg 90%
    09:00 +9°C° 0.5 mm 3 mps 732 mmHg 88%
    10:00 +10°C° 0.5 mm 3 mps 732 mmHg 87%
    11:00 +11°C° 0.6 mm 3 mps 732 mmHg 86%
    12:00 +11°C° 0.6 mm 3 mps 732 mmHg 85%
    13:00 +12°C° 0.6 mm 3 mps 731 mmHg 85%
    14:00 +11°C° 0.2 mm 3 mps 731 mmHg 87%
    15:00 +12°C° 0.2 mm 2 mps 731 mmHg 89%
    16:00 +12°C° 0.2 mm 2 mps 731 mmHg 91%
    17:00 +10°C° 0 mm 2 mps 731 mmHg 92%
    18:00 +10°C° 0 mm 2 mps 731 mmHg 93%
    19:00 +10°C° 0 mm 2 mps 731 mmHg 94%
    20:00 +10°C° 0.1 mm 2 mps 731 mmHg 94%
    21:00 +10°C° 0.1 mm 2 mps 731 mmHg 94%
    22:00 +10°C° 0.1 mm 2 mps 731 mmHg 94%
    23:00 +10°C° 0.2 mm 2 mps 731 mmHg 94%

    21 November, Wednesday

    Time Temperature Precipitation Wind Pressure Humidity
    00:00 +11°C° 0.2 mm 1 mps 730 mmHg 95%
    01:00 +11°C° 0.2 mm 1 mps 730 mmHg 95%
    02:00 +11°C° 0.5 mm 1 mps 729 mmHg 95%
    03:00 +11°C° 0.5 mm 1 mps 729 mmHg 94%
    04:00 +11°C° 0.5 mm 1 mps 728 mmHg 94%
    05:00 +11°C° 0.9 mm 1 mps 728 mmHg 94%
    06:00 +11°C° 0.9 mm 1 mps 728 mmHg 93%
    07:00 +11°C° 0.9 mm 1 mps 728 mmHg 92%
    08:00 +12°C° 0.4 mm 1 mps 729 mmHg 90%
    09:00 +12°C° 0.4 mm 1 mps 729 mmHg 88%
    10:00 +13°C° 0.4 mm 1 mps 729 mmHg 86%
    11:00 +13°C° 0.2 mm 1 mps 729 mmHg 84%
    12:00 +13°C° 0.2 mm 1 mps 729 mmHg 82%
    13:00 +13°C° 0.2 mm 1 mps 729 mmHg 81%
    14:00 +13°C° 0.3 mm 1 mps 729 mmHg 83%
    15:00 +12°C° 0.3 mm 1 mps 730 mmHg 85%
    16:00 +12°C° 0.3 mm 1 mps 730 mmHg 88%
    17:00 +11°C° 0.1 mm 1 mps 730 mmHg 88%
    18:00 +11°C° 0.1 mm 1 mps 731 mmHg 89%
    19:00 +10°C° 0.1 mm 2 mps 731 mmHg 89%
    20:00 +9°C° 0.1 mm 2 mps 732 mmHg 89%
    21:00 +9°C° 0.1 mm 2 mps 732 mmHg 89%
    22:00 +9°C° 0.1 mm 2 mps 732 mmHg 89%
    23:00 +9°C° 0.1 mm 1 mps 733 mmHg 89%

    22 November, Thursday

    Time Temperature Precipitation Wind Pressure Humidity
    00:00 +9°C° 0.1 mm 1 mps 733 mmHg 89%
    01:00 +9°C° 0.1 mm 1 mps 733 mmHg 89%
    02:00 +9°C° 0.1 mm 1 mps 733 mmHg 89%
    03:00 +9°C° 0.1 mm 1 mps 733 mmHg 89%
    04:00 +8°C° 0.1 mm 1 mps 734 mmHg 89%
    05:00 +8°C° 0 mm 1 mps 734 mmHg 88%
    06:00 +8°C° 0 mm 1 mps 734 mmHg 88%
    07:00 +8°C° 0 mm 1 mps 735 mmHg 87%
    08:00 +9°C° 0 mm 1 mps 735 mmHg 82%
    09:00 +10°C° 0 mm 1 mps 736 mmHg 77%
    10:00 +12°C° 0 mm 1 mps 736 mmHg 73%
    11:00 +12°C° 0 mm 1 mps 736 mmHg 70%
    12:00 +13°C° 0 mm 1 mps 736 mmHg 68%
    13:00 +13°C° 0 mm 2 mps 736 mmHg 66%
    14:00 +13°C° 0 mm 1 mps 736 mmHg 70%
    15:00 +12°C° 0 mm 1 mps 736 mmHg 73%
    16:00 +11°C° 0 mm 1 mps 737 mmHg 77%
    17:00 +10°C° 0 mm 1 mps 737 mmHg 79%
    18:00 +10°C° 0 mm 1 mps 738 mmHg 81%
    19:00 +9°C° 0 mm 1 mps 738 mmHg 84%
    20:00 +9°C° 0 mm 1 mps 738 mmHg 84%
    21:00 +9°C° 0 mm 1 mps 739 mmHg 85%
    22:00 +8°C° 0 mm 1 mps 739 mmHg 86%
    23:00 +8°C° 0 mm 1 mps 739 mmHg 87%

    23 November, Friday

    Time Temperature Precipitation Wind Pressure Humidity
    00:00 +8°C° 0 mm 1 mps 739 mmHg 87%
    01:00 +8°C° 0 mm 1 mps 739 mmHg 87%
    02:00 +7°C° 0 mm 1 mps 740 mmHg 88%
    03:00 +7°C° 0 mm 1 mps 740 mmHg 88%
    04:00 +7°C° 0 mm 1 mps 740 mmHg 88%
    05:00 +7°C° 0 mm 1 mps 740 mmHg 88%
    06:00 +7°C° 0 mm 1 mps 741 mmHg 88%
    07:00 +6°C° 0 mm 1 mps 741 mmHg 88%
    08:00 +8°C° 0 mm 1 mps 741 mmHg 81%
    09:00 +9°C° 0 mm 1 mps 741 mmHg 74%
    10:00 +11°C° 0 mm 1 mps 742 mmHg 67%
    11:00 +12°C° 0 mm 1 mps 741 mmHg 65%
    12:00 +12°C° 0 mm 1 mps 741 mmHg 62%
    13:00 +13°C° 0 mm 1 mps 741 mmHg 60%
    14:00 +12°C° 0 mm 1 mps 741 mmHg 63%
    15:00 +11°C° 0 mm 1 mps 741 mmHg 67%
    16:00 +11°C° 0 mm 1 mps 741 mmHg 71%
    17:00 +10°C° 0 mm 1 mps 741 mmHg 74%
    18:00 +9°C° 0 mm 1 mps 741 mmHg 77%
    19:00 +8°C° 0 mm 1 mps 741 mmHg 79%
    20:00 +8°C° 0 mm 1 mps 742 mmHg 80%
    21:00 +8°C° 0 mm 1 mps 742 mmHg 81%
    22:00 +7°C° 0 mm 1 mps 742 mmHg 82%
    23:00 +7°C° 0 mm 1 mps 741 mmHg 82%
    Show more